Other Public Products
Issued by NWS Charleston, SC

Current Version | Previous Version | Graphics & Text | Print | Product List | Glossary On
Versions: 1 2 3 4 5 6 7 8 9 10 11 12 13 14 15 16 17 18 19 20 21 22 23 24 25 26 27 28 29 30 31 32 33 34 35 36 37 38 39 40 41 42 43 44 45 46 47 48 49 50
000 FPUS82 KCHS 170727 OPUCHS TEST...KCHS/KSAV Gateway Observations...TEST National Weather Service Charleston SC 200 AM EST SUN DEC 17 2017 NOTE: "fair" indicates few or no clouds below 12,000 feet with no significant weather and/or obstructions to visibility. SCZ050-WAZ558-NCZ071-TXZ119-213-PAZ071-DCZ001-FLZ074-172-MI076- NYZ176-178-MAZ016-IL014-TNZ027-NJZ106-GAZ044-MD014-170800- ...Gateway Observations for Charleston International... CITY SKY/WX TMP DP RH WIND PRES REMARKS Chas Airport PTCLDY 35 34 96 CALM 30.30F Seattle LGT RAIN 43 41 93 S10 30.25F Charlotte CLOUDY 34 25 69 SE3 30.27S Dallas DFW CLOUDY 46 43 89 SE8 30.01F Dallas Love CLOUDY 45 43 93 SE10 30.03F Philladelphia CLOUDY 36 28 73 W3 30.23R Wash National PTCLDY 32 26 78 CALM 30.23R Baltimore PTCLDY 27 24 89 CALM 30.22R Miami MOCLDY 70 63 78 CALM 30.20S Detroit MOCLDY 26 17 68 NE6 30.19R WCI 19 Newark CLOUDY 33 24 69 N7 30.23R WCI 27 Laguardia CLOUDY 35 20 54 NW7 30.23R WCI 29 J F K CLOUDY 34 21 59 N8 30.24R WCI 27 Boston Logan CLEAR 23 7 50 W10 30.20R WCI 12 Ft. Lauderdale MOCLDY 73 65 75 E10 30.19F Chicago O`Hare CLOUDY 32 30 92 N6 30.05R WCI 26 Chicago Midway CLOUDY 35 32 88 N5 30.05R WCI 31 Houston Bush CLOUDY 48 47 96 N9 30.02F Houston Hobby CLOUDY 49 48 97 N9 30.01S Nashville CLOUDY 42 31 64 E7 30.20F Atlanta CLOUDY 38 29 70 CALM 30.25F $$ GAZ044-118-TXZ119-213-NCZ071-DCZ001-MDZ014-506-PAZ021-071-NJZ106- NYZ176-178-MAZ106-OHZ011-021-055-MIZ076-KYZ091-ILZ014-INZ047- MNZ060-ONZ431-170800- ...Gateway Observations for Savannah International... CITY SKY/WX TMP DP RH WIND PRES REMARKS Savannah Arpt PTCLDY 35 33 92 CALM 30.31F Atlanta CLOUDY 38 29 70 CALM 30.25F Charlotte CLOUDY 34 25 69 SE3 30.27S Dallas DFW CLOUDY 46 43 89 SE8 30.01F Houston Bush CLOUDY 48 47 96 N9 30.02F Wash National PTCLDY 32 26 78 CALM 30.23R Wash Dulles PTCLDY 25 22 88 CALM 30.22R Baltimore PTCLDY 27 24 89 CALM 30.22R Philadelphia CLOUDY 36 28 73 W3 30.23R Newark CLOUDY 33 24 69 N7 30.23R WCI 27 Laguardia CLOUDY 35 20 54 NW7 30.23R WCI 29 J F K CLOUDY 34 21 59 N8 30.24R WCI 27 Boston CLEAR 23 7 50 W10 30.20R WCI 12 Pittsburg CLOUDY 38 27 64 SW6 30.15R WCI 33 Akron CLOUDY 26 22 84 CALM 30.14R Cleveland CLOUDY 26 24 92 CALM 30.17S FOG Cincinnati MOCLDY 37 30 75 S8 30.16F WCI 31 Columbus CLOUDY 34 28 80 S7 30.18R WCI 28 Detroit MOCLDY 26 17 68 NE6 30.19R WCI 19 Chicago O`Hare CLOUDY 32 30 92 N6 30.05R WCI 26 Minneapolis CLOUDY 21 18 88 NE3 30.09S Indianapolis CLOUDY 37 28 70 SW7 30.10F WCI 32 Toronto Canada MOCLDY 12 5 73 N8 30.25R WCI 1 $$

USA.gov is the U.S. government's official web portal to all federal, state and local government web resources and services.